TimeCST,TemperatureF,Dew PointF,Humidity,Sea Level PressureIn,VisibilityMPH,Wind Direction,Wind SpeedMPH,Gust SpeedMPH,PrecipitationIn,Events,Conditions,WindDirDegrees,DateUTC
12:52 AM,35.1,10.0,35,29.63,10.0,South,21.9,28.8,N/A,,Clear,190,2014-01-30 06:52:00
1:52 AM,34.0,10.9,38,29.59,10.0,SSW,21.9,28.8,N/A,,Clear,200,2014-01-30 07:52:00
2:52 AM,34.0,10.9,38,29.55,10.0,South,18.4,28.8,N/A,,Clear,190,2014-01-30 08:52:00
3:52 AM,34.0,12.0,40,29.53,10.0,SSW,20.7,-,N/A,,Clear,200,2014-01-30 09:52:00
4:52 AM,33.1,12.0,42,29.51,10.0,South,16.1,-,N/A,,Clear,190,2014-01-30 10:52:00
5:52 AM,33.1,12.0,42,29.54,10.0,SSW,13.8,-,N/A,,Clear,200,2014-01-30 11:52:00
6:52 AM,32.0,12.9,45,29.58,10.0,SW,16.1,-,N/A,,Clear,220,2014-01-30 12:52:00
7:52 AM,36.0,15.1,43,29.61,10.0,West,11.5,-,N/A,,Clear,280,2014-01-30 13:52:00
8:52 AM,41.0,18.0,40,29.64,10.0,WNW,10.4,-,N/A,,Clear,300,2014-01-30 14:52:00
9:52 AM,45.0,26.1,48,29.68,10.0,North,13.8,-,N/A,,Clear,350,2014-01-30 15:52:00
10:52 AM,48.9,30.0,48,29.71,10.0,North,23.0,32.2,N/A,,Scattered Clouds,360,2014-01-30 16:52:00
11:52 AM,53.1,30.0,41,29.73,10.0,North,20.7,27.6,N/A,,Scattered Clouds,10,2014-01-30 17:52:00
12:52 PM,53.1,30.0,41,29.72,10.0,NNE,21.9,-,N/A,,Mostly Cloudy,20,2014-01-30 18:52:00
1:52 PM,53.1,30.9,43,29.73,10.0,NE,20.7,27.6,N/A,,Clear,40,2014-01-30 19:52:00
2:52 PM,50.0,30.0,46,29.75,10.0,NE,19.6,-,N/A,,Clear,50,2014-01-30 20:52:00
3:52 PM,46.0,25.0,44,29.80,10.0,NE,19.6,-,N/A,,Clear,50,2014-01-30 21:52:00
4:52 PM,42.1,21.9,45,29.82,10.0,ENE,15.0,-,N/A,,Clear,60,2014-01-30 22:52:00
5:52 PM,36.0,21.0,55,29.86,10.0,NE,11.5,-,N/A,,Clear,50,2014-01-30 23:52:00
6:52 PM,35.1,19.9,54,29.88,10.0,NE,10.4,-,N/A,,Clear,50,2014-01-31 00:52:00
7:52 PM,33.1,19.0,56,29.87,10.0,NE,13.8,-,N/A,,Clear,50,2014-01-31 01:52:00
8:52 PM,32.0,18.0,56,29.87,10.0,NE,15.0,-,N/A,,Scattered Clouds,50,2014-01-31 02:52:00
9:52 PM,30.9,18.0,59,29.89,10.0,NE,19.6,-,N/A,,Scattered Clouds,50,2014-01-31 03:52:00
10:52 PM,28.9,17.1,61,29.88,10.0,NE,18.4,24.2,N/A,,Clear,50,2014-01-31 04:52:00
11:52 PM,27.0,16.0,63,29.86,10.0,NE,16.1,-,N/A,,Partly Cloudy,50,2014-01-31 05:52:00